Вернуться в каталог

THOR DELTA 1 R/B

АктивенPO
NORAD 5106·ROCKET BODY·🇺🇸 United States

Запущен Apr 1, 1971 с Vandenberg Space Force Base

Loading…

Ближайшие Пролёты (ближайшие 24 часа)

TLE

СвежийSource: Space-Track

Эпоха: Sep 14, 2026, 09:31 UTC

1 05106U 71024B   26257.39694596  .00000024  00000-0  66078-4 0  9996
2 05106  88.1606 298.9192 0044138 170.8525 249.1016 12.68915699567615

Отслеживайте THOR DELTA 1 R/B в реальном времени с AllMySat

Download on the App Store